Other Public Products
Issued by NWS Grand Forks, ND

Home | Current Version | Previous Version | Graphics & Text | Print | Product List | Glossary On
Versions: 1 2 3 4 5 6 7 8 9 10 11 12 13 14 15 16 17 18 19 20 21 22 23 24 25 26 27 28 29 30 31 32 33 34 35 36 37 38 39 40 41 42 43 44 45 46 47 48 49 50
000
FPUS83 KFGF 291431
OPUFGF
PRAIRIE TO PINES WEATHER ROUNDUP
NATIONAL WEATHER SERVICE EASTERN NORTH DAKOTA/GRAND FORKS ND
900 AM CDT SUN MAR 29 2015

 **SATELLITE DATA USED TO AUGMENT SKY COVER AT AUTOMATED STATIONS**
 *****  WEATHER ACROSS EASTERN NORTH DAKOTA  *****

CITY           SKY/WX    TMP DP  RH WIND       PRES   REMARKS
GRAND FORKS    CLOUDY    39  33  79 NW24G36   29.73R
GRAND FORKS AF MOSUNNY   39  32  75 N22G29    29.75R
GRAND CITY NWS   N/A     37 N/A N/A N39         N/A
BUXTON           N/A     39  35  85 NW36G49     N/A
DEVILS LAKE    SUNNY     39  34  81 NW21      29.84R
FARGO          LGT RAIN  40  34  79 NW25G38   29.71R
WAHPETON ARPT  CLOUDY    37  34  87 NW29G41   29.71R
$$

 *****  WEATHER ACROSS CENTRAL AND WESTERN NORTH DAKOTA  *****

CITY           SKY/WX    TMP DP  RH WIND       PRES   REMARKS
JAMESTOWN      MOSUNNY   39  35  86 NW28G37   29.84R
BISMARCK       SUNNY     40  33  76 NW20G29   30.00R
MINOT          SUNNY     40  30  67 W21G29    29.96R
MINOT AFB      SUNNY     39  36  89 NW18      29.95R
GARRISON         N/A     38  33  82 NW20      30.00R
WILLISTON      MOSUNNY   38  34  85 W16       30.06S
DICKINSON      SUNNY     37  33  85 W20       30.07R
HETTINGER      SUNNY     37  33  85 NW15      30.10R
$$

 *****  OTHER OBSERVATIONS NORTHEAST NORTH DAKOTA  *****

CITY           SKY/WX    TMP DP  RH WIND       PRES   REMARKS
WALHALLA         N/A     39  39 100 NW25      29.79R
LANGDON        NOT AVBL
CAVALIER       CLOUDY    37  34  87 NW22G29   29.77R
GRAFTON        NOT AVBL
CANDO          FAIR      39  32  75 NW16      29.86R
FORT TOTTEN      N/A     38  33  82 NW9       29.95S
ROLLA          FAIR      37  32  81 NW29G38   29.86R
RUGBY            N/A     37  32  81 NW21      29.92R
 ***** THE ABOVE OBSERVATIONS ARE NON NWS ARE NOT QUALITY
        CONTROLLED AND MAY MIS-REPORT RAIN FOR SNOW...
$$

 *****  OTHER OBSERVATIONS SOUTHEAST NORTH DAKOTA *****

CITY           SKY/WX    TMP DP  RH WIND       PRES   REMARKS
COOPERSTOWN    NOT AVBL
VALLEY CITY    PTSUNNY   39  39 100 NW28G35   29.81R
OAKES            N/A     41  39  93 NW36G44   29.81R
GWINNER          N/A     43  39  87 NW33G41     N/A
BUFFALO        NOT AVBL
WYNDMERE         N/A     39  37  93 NW26        N/A
 ***** THE ABOVE OBSERVATIONS ARE NON NWS ARE NOT QUALITY
       CONTROLLED AND MAY MIS-REPORT RAIN FOR SNOW...
$$

  *****  WEATHER ACROSS NORTHERN MINNESOTA  *****

CITY           SKY/WX    TMP DP  RH WIND       PRES   REMARKS
FLAG ISLAND    CLOUDY    34  30  86 NW32      29.56R WCI  20
WARROAD        CLOUDY    34  30  86 NW22G37   29.60R WCI  22
ROSEAU         CLOUDY    36  30  80 NW23G32   29.62R
HALLOCK        CLOUDY    37  34  87 NW25G35   29.71R
THF RVR FALLS  CLOUDY    37  34  87 NW23G35   29.66R
HALSTAD          N/A     39  34  82 N36         N/A
FOSSTON        CLOUDY    36  34  93 NW23G35   29.64R
BAUDETTE       CLOUDY    35  32  88 NW35G40   29.50R WCI  21
WASKISH        CLOUDY    37  36  93 NW20G30   29.53R
CROOKSTON      CLOUDY    36  36 100 N32G41    29.72R
$$
  *****  WEATHER ACROSS CENTRAL AND WEST MINNESOTA  *****

CITY           SKY/WX    TMP DP  RH WIND       PRES   REMARKS
BEMIDJI        DRIZZLE   37  35  90 NW23G41   29.53R
PARK RAPIDS    LGT RAIN  41  37  86 NW28G36   29.52R
WADENA         LGT RAIN  36  34  93 NW22G33   29.55R
DETROIT LAKES  CLOUDY    36  36 100 NW32G46   29.64R
MOORHEAD       CLOUDY    39  39 100 NW24G36   29.72R
FERGUS FALLS   CLOUDY    37  37 100 NW37G51   29.68R
ELBOW LAKE     LGT RAIN  38  35  90 NW36G51   29.64R
MORRIS MN      LGT RAIN  41  37  87 NW32G39   29.65R
STAPLES        RAIN      39  39 100 NW22G28   29.50R
WHEATON        RAIN      39  36  87 NW28G37   29.73R
$$
  *****  WEATHER ELSEWHERE ACROSS MINNESOTA  *****

CITY           SKY/WX    TMP DP  RH WIND       PRES   REMARKS
DULUTH         LGT RAIN  35  29  78 SW22G28   29.47F WCI  23
INTRNTL FALLS  LGT RAIN  35  33  92 W12       29.44R FOG
ELY            LGT SNOW  32  30  93 SW8       29.43F WCI  25
CLOQUET        MIX PCPN  34  30  86 SW14G21   29.47F WCI  24
BRAINERD       RAIN      37  35  92 SW12      29.48R FOG
HIBBING        LGT SNOW  33  31  92 VRB6      29.45S FOG
ALEXANDRIA     LGT RAIN  40  36  86 NW23G40   29.58R
SAINT CLOUD    CLOUDY    38  34  85 S13       29.52F
MINNEAPOLIS    CLOUDY    38  32  79 S17G26    29.60F
$$

  *****  WEATHER ACROSS SOUTH DAKOTA  *****

CITY           SKY/WX    TMP DP  RH WIND       PRES   REMARKS
SIOUX FALLS    CLOUDY    49  37  63 W22G35    29.77R
BROOKINGS      NOT AVBL
WATERTOWN      LGT RAIN  41  37  86 NW30G38   29.75R
HURON          CLOUDY    44  38  79 NW35G51   29.85R
SISSETON         N/A     41  39  93 N31G38    29.72R
ABERDEEN       CLOUDY    42  37  82 NW31G40   29.87R
MITCHELL       CLOUDY    47  37  68 NW39G51   29.88R
PIERRE         CLOUDY    44  32  62 NW33G51   30.02R
MOBRIDGE       MOSUNNY   42  33  70 NW26G36   29.99R
RAPID CITY     PTSUNNY   43  34  70 N28G36    30.17R
$$

  *****  SOME WEATHER IN NEARBY STATES *****

CITY           SKY/WX    TMP DP  RH WIND       PRES   REMARKS
GLASGOW MT     SUNNY     35  33  92 SW7       30.10F
GREAT FALLS MT MOCLDY    40  28  62 SW12      30.16S
CHEYENNE WY    SUNNY     39  18  42 N8        30.29R
SCOTTSBLUFF NE SUNNY     46  30  53 NW22G30   30.23R
OMAHA NE       CLOUDY    44  36  73 S7        29.90R
DES MOINES IA  CLOUDY    43  37  79 SW17      29.88F
DAVENPORT IA   MIX PCPN  33  27  78 S26G35    29.94F WCI  20
CHICAGO IL     CLOUDY    34  16  47 S21G29    30.06F WCI  22
EAU CLAIRE WI  CLOUDY    33  28  81 S12       29.65F WCI  24
LA CROSSE WI   CLOUDY    35  30  82 S15       29.76F
$$

  *****  SOME NATIONAL WEATHER *****

CITY           SKY/WX    TMP DP  RH WIND       PRES   REMARKS
LA GUARDIA NY  MOSUNNY   31   5  33 N10       30.29R WCI  22
RALEIGH NC     SUNNY     35  11  36 N9        30.44R
ATLANTA GA     MOSUNNY   42  16  34 SE12      30.40R
NEW ORLEANS LA MOSUNNY   64  52  64 SE14      30.28R
OKLAHOMA CITY  MOSUNNY   52  44  74 S17       29.94F
ALBUQUERQUE NM MOSUNNY   51  16  24 SE3       30.25R
SALT LAKE CITY CLEAR     39  26  59 S6        30.31R
LOS ANGELES CA FOG       56  56 100 CALM      30.06R VSB 3/4
BOISE ID       CLEAR     38  28  67 S5        30.31R
SEATTLE WA     CLOUDY    49  43  80 S6        30.26R
$$

*** WEATHER ACROSS MANITOBA...SASKATCHEWAN AND ONTARIO ***
                ***ONTARIO***

CITY           SKY/WX    TMP DP  RH WIND       PRES   REMARKS
GERALDTON      SNOW      28  27  93 S17G30    29.45F VSB 3/8 WCI  16
THUNDER BAY    LGT SNOW  34  27  75 SW15      29.49F WCI  24
SIOUX LOOKOUT  LGT SNOW  32  32 100 W6        29.37S VSB 3/4
TORONTO        MOSUNNY   30  14  51 SW9       30.25F WCI  22
BIG TROUT LK   NOT AVBL
PICKLE LAKE    LGT SNOW  32  30  93 W6        29.32F VSB 3/4
DRYDEN         LGT SNOW  32  32 100 NW10G20   29.39R WCI  24
KENORA         CLOUDY    34  32  93 NW18G25   29.50R WCI  23
$$
                *** MANITOBA***

CITY           SKY/WX    TMP DP  RH WIND       PRES   REMARKS
BRANDON        SUNNY     36  30  80 NW17      29.87R
DAUPHIN        SUNNY     36  30  80 W14       29.85R
ISLAND LAKE    LGT SNOW  30  28  93 NW16G24   29.58R WCI  19
PILOT MOUND      N/A     36  32  87 NW24G31     N/A
THE PAS        SUNNY     34  25  69 W13       29.76S WCI  25
THOMPSON       PTSUNNY   27  23  86 N8        29.67R WCI  18
WINNIPEG       PTSUNNY   37  32  81 N18       29.73R
LYNN LAKE      PTSUNNY   25  23  93 N6        29.70R WCI  18
CHURCHILL      MOSUNNY    5   0  78 N16G23    29.80R WCI -14
GILLAM         LGT SNOW  14  10  85 N18       29.67R VSB 3/4 WCI  -3
$$
                ***SASKATCHEWAN***

CITY           SKY/WX    TMP DP  RH WIND       PRES   REMARKS
ESTEVAN        MOSUNNY   36  32  87 W14       30.01R
KINDERSLEY     PTCLDY    32  30  93 S6        29.99S
LLOYDMINSTER   MOCLDY    34  28  80 SW9       29.91F
PRINCE ALBERT  MOSUNNY   36  28  75 W8        29.91R
REGINA         MOSUNNY   34  34 100 W12       29.99R
YORKTON        CLOUDY    36  28  75 W13       29.89R



USA.gov is the U.S. government's official web portal to all federal, state and local government web resources and services.